Regional Weather Roundup
Issued by NWS Portland, ME

Home | Current Version | Previous Version | Text Only | Print | Product List | Glossary On
Versions: 1 2 3 4 5 6 7 8 9 10 11 12 13 14 15 16 17 18 19 20 21 22 23 24 25 26 27 28 29 30 31 32 33 34 35 36 37 38 39 40 41 42 43 44 45 46 47 48 49 50
000
ASUS41 KGYX 280110
RWRGYX
WEATHER ROUNDUP FOR MAINE AND NEW HAMPSHIRE
NATIONAL WEATHER SERVICE GRAY ME
900 PM EDT MON JUN 27 2016

MEZ002-005-006-010-012-015-018-020-021-024-026-027-029-280200-
MAINE

CITY           SKY/WX    TMP DP  RH WIND       PRES   REMARKS
PORTLAND       CLOUDY    70  61  73 S9        29.96S
SANFORD        CLOUDY    72  57  60 S5        29.98R
WISCASSET      PTCLDY    68  59  73 VRB7      29.99S
ROCKLAND       MOCLDY    62  57  83 SW9       30.00S
FRYEBURG       CLOUDY    72  59  63 SW6       29.95S
LEWISTONAUBURN CLOUDY    69  54  58 S7        29.96S
AUGUSTA        CLOUDY    68  54  60 S8        29.96S
WATERVILLE     PTCLDY    69  52  54 SW6       29.94R
BANGOR         CLOUDY    67  53  61 S15       29.96S
GREENVILLE       N/A     69  51  52 S7G16     29.92S
MILLINOCKET    MOCLDY    72  55  55 VRB5      29.92S
HOULTON        NOT AVBL
PRESQUE ISLE   CLOUDY    76  58  53 S14G23    29.85R
FRENCHVILLE    MOCLDY    75  58  55 S9        29.82R
CARIBOU        CLOUDY    77  60  55 S12       29.83R
$$

NHZ002-005-008-009-011-012-014-280200-
NEW HAMPSHIRE

CITY           SKY/WX    TMP DP  RH WIND       PRES   REMARKS
PORTSMOUTH     CLOUDY    74  63  67 S8        29.96R
ROCHESTER      CLOUDY    75  59  57 S6        29.96S
NASHUA         CLOUDY    75  62  64 VRB6      29.99R
MANCHESTER     CLOUDY    77  59  53 S12       29.96S
CONCORD        CLOUDY    76  60  57 S9        29.97R
LACONIA        CLOUDY    75  57  53 SW8       29.97S
PLYMOUTH       CLOUDY    72  56  58 CALM      29.96S
BERLIN         CLOUDY    72  58  61 SW7       29.95S
WHITEFIELD     CLOUDY    71  59  65 CALM      29.95S
JAFFREY        CLOUDY    72  60  66 S10       30.01S
KEENE          MOCLDY    73  61  64 SW12      29.99S
LEBANON        CLOUDY    71  62  73 S3        29.95S
MT WASHINGTON  FOG       50  50 100 SW33G45     N/A  VSB 0
$$

VTZ005-007-008-280200-
VERMONT

CITY           SKY/WX    TMP DP  RH WIND       PRES   REMARKS
ST JOHNSBURY     N/A     73  57  57 MISG      29.91F
MONTPELIER     FAIR      69  59  70 SE5       29.98R
BURLINGTON     FAIR      74  60  61 S14G22    29.88S
$$

MAZ007-012-024-CTZ003-RIZ002-NYZ038-NYZ072-280200-
SOUTHERN NEW ENGLAND AND NY

CITY           SKY/WX    TMP DP  RH WIND       PRES   REMARKS
BOSTON         CLOUDY    73  61  65 S13G22    30.01R
WORCESTER      CLOUDY    70  60  70 S16G23    30.03S
NANTUCKET      CLEAR     65  63  93 S9        30.08S
PROVIDENCE     MOCLDY    71  62  73 S10       30.05R
HARTFORD       MOCLDY    72  64  76 S12       29.99S
ALBANY         MOCLDY    72  64  76 S13G21    29.95F
NEW YORK CITY  CLOUDY    74  66  76 S14G23    29.99S
$$

ANZ081-ANZ082-ANZ150-NHZ014-MEZ023>029-280200-
COASTAL MARINE OBSERVATIONS

STATION/POSITION TIME  TEMP    WIND        PRES    WAVE
                       AIR SEA DIR/SP/G            HT/PER
                 (UTC) (F)     (DEG/KT/KT) (MB)    (FT/S)
MOUNT DESERT ROC 0100   56     160/ 21/ 22 1017.0R
MATINICUS ROCK   0000   60     180/ 24/ 25 1015.6R
ISLE OF SHOALS   0000   69     190/ 24/ 25 1014.8R
JEFFREYS LEDGE   0008      62                N/A     4/ 5
CASHES LEDGE BUO 0050   63 60  190/ 21/ 23 1016.2R   5/ 5
GEORGES BANK BUO 0050   62 61              1020.1S   3/ 8
$$

.............KEY..............
   WCI - WIND CHILL
   TC  - TEMPERATURE IN CELSIUS
   VSB - VISIBILITY IN MILES
   HX  - HEAT INDEX
   FAIR- INDICATES FEW OR NO CLOUDS BELOW 12,000 FT, WITH NO
         SIGNIFICANT WEATHER AND/OR OBSTRUCTIONS TO VISIBILITY.






USA.gov is the U.S. government's official web portal to all federal, state and local government web resources and services.